This is the latest recevied weather packets stored in our database for station/object KF7ROW. If no packets are shown the sender has not sent any weather packets the latest 10 day(s).
| Time | Temp. | Humidity | Pressure | Rain* | Wind** | Luminosity | Snow |
|---|---|---|---|---|---|---|---|
| 1778081411 | 12.22° C | 87% | 1025.4 hPa | 0 mm | - | 66 W/m² | - |
| 1778081108 | 12.78° C | 88% | 1025.3 hPa | 0 mm | - | 70 W/m² | - |
| 1778080807 | 12.78° C | 88% | 1025.1 hPa | 0 mm | - | 72 W/m² | - |
| 1778080504 | 12.78° C | 88% | 1025.2 hPa | 0 mm | - | 65 W/m² | - |
| 1778080201 | 12.22° C | 88% | 1025.3 hPa | 0 mm | - | 59 W/m² | - |
| 1778079897 | 12.22° C | 88% | 1025.3 hPa | 0 mm | - | 46 W/m² | - |
| 1778079594 | 12.22° C | 89% | 1025.4 hPa | 0 mm | - | 42 W/m² | - |
| 1778079290 | 12.22° C | 89% | 1025.5 hPa | 0 mm | - | 33 W/m² | - |
| 1778078988 | 12.22° C | 89% | 1025.7 hPa | 0 mm | - | 31 W/m² | - |
| 1778078684 | 12.22° C | 89% | 1025.4 hPa | 0 mm | - | 31 W/m² | - |
| 1778078383 | 12.22° C | 90% | 1025.5 hPa | 0 mm | - | 29 W/m² | - |
| 1778078079 | 12.22° C | 90% | 1025.6 hPa | 0 mm | - | 25 W/m² | - |
| 1778077778 | 12.22° C | 90% | 1025.7 hPa | 0 mm | - | 20 W/m² | - |
| 1778077475 | 12.22° C | 89% | 1025.6 hPa | 0 mm | - | 17 W/m² | - |
| 1778077173 | 12.22° C | 89% | 1025.6 hPa | 0 mm | - | 18 W/m² | - |
| 1778076871 | 11.67° C | 90% | 1025.5 hPa | 0 mm | - | 15 W/m² | - |
| 1778076569 | 11.67° C | 91% | 1025.2 hPa | 0 mm | - | 15 W/m² | - |
| 1778076266 | 11.67° C | 91% | 1025.2 hPa | 0 mm | - | 13 W/m² | - |
| 1778075963 | 11.67° C | 91% | 1025.2 hPa | 0 mm | - | 12 W/m² | - |
| 1778075660 | 11.67° C | 91% | 1025 hPa | 0 mm | - | 10 W/m² | - |
| 1778075356 | 11.67° C | 91% | 1024.8 hPa | 0 mm | - | 9 W/m² | - |
| 1778075052 | 12.22° C | 91% | 1024.8 hPa | 0 mm | - | 9 W/m² | - |
| 1778074750 | 12.22° C | 91% | 1025 hPa | 0 mm | - | 7 W/m² | - |
| 1778074446 | 12.22° C | 91% | 1024.9 hPa | 0 mm | - | 6 W/m² | - |
| 1778074143 | 12.22° C | 91% | 1024.9 hPa | 0 mm | - | 5 W/m² | - |
* Rain latest hour (hover to see other rain measurements)
** Current wind speed in m/s (hover to see current wind gust speed)